Waarnemingen

Advertentie
Mijn weer
La Coruna/Alvedro, Spanje (8002): temperatuur & dauwpunt: 05.08.2020 08:00:00 - 11.08.2020 08:00:00 (CEST)La Coruna/Alvedro, Spanje (8002): windsnelheid: 05.08.2020 08:00:00 - 11.08.2020 08:00:00 (CEST)La Coruna/Alvedro, Spanje (8002): windrichting: 05.08.2020 08:00:00 - 11.08.2020 08:00:00 (CEST)La Coruna/Alvedro, Spanje (8002): luchtdruk: 05.08.2020 08:00:00 - 11.08.2020 08:00:00 (CEST)La Coruna/Alvedro, Spanje (8002): zicht: 05.08.2020 08:00:00 - 11.08.2020 08:00:00 (CEST)La Coruna/Alvedro, Spanje (8002): neerslag: 05.08.2020 08:00:00 - 11.08.2020 08:00:00 (CEST)
Datum & Tijd tt [°C] td [°C] ff [km/u] ff [kn] dd ppp [hPa] vv [km] rr [mm]
11.08.2020 08:00:00 - - - - - - - -
11.08.2020 07:00:00 - - - - - - - -
11.08.2020 06:00:00 - - - - - - - -
11.08.2020 05:00:00 - - - - - - - -
11.08.2020 04:00:00 - - - - - - - -
11.08.2020 03:00:00 - - - - - - - -
11.08.2020 02:00:00 - - - - - - - -
11.08.2020 01:00:00 - - - - - - - -
11.08.2020 00:00:00 - - - - - - - -
10.08.2020 23:00:00 - - - - - - - -
10.08.2020 22:00:00 - - - - - - - -
10.08.2020 21:00:00 - - - - - - - -
10.08.2020 20:00:00 - - - - - - - -
10.08.2020 19:00:00 - - - - - - - -
10.08.2020 18:00:00 - - - - - - - -
10.08.2020 17:00:00 - - - - - - - -
10.08.2020 16:00:00 - - - - - - - -
10.08.2020 15:00:00 - - - - - - - -
10.08.2020 14:00:00 - - - - - - - -
10.08.2020 13:00:00 - - - - - - - -
10.08.2020 12:00:00 - - - - - - - -
10.08.2020 11:00:00 - - - - - - - -
10.08.2020 10:00:00 - - - - - - - -
10.08.2020 09:00:00 - - - - - - - -
10.08.2020 08:00:00 19,0 17,0 9 5 NNW - 10 -
10.08.2020 07:00:00 18,2 17,2 8 4 N 1014,3 10 -
10.08.2020 06:00:00 18,4 17,2 9 5 N 1014,3 8 -
10.08.2020 05:00:00 18,6 17,1 9 5 N 1014,6 10 -
10.08.2020 04:00:00 18,9 17,7 11 6 N 1014,8 11 -
10.08.2020 03:00:00 19,1 17,6 4 2 N 1015,2 14 -
10.08.2020 02:00:00 19,3 17,2 2 1 - 1015,6 10 -
10.08.2020 01:00:00 19,2 16,8 4 2 NNO 1015,8 22 -
10.08.2020 00:00:00 18,8 15,9 2 1 - 1016,0 10 -
09.08.2020 23:00:00 19,0 17,0 4 2 - 1016,2 10 -
09.08.2020 22:00:00 19,6 16,6 8 4 N 1016,2 10 -
09.08.2020 21:00:00 20,2 16,6 13 7 N 1016,2 30 -
09.08.2020 20:00:00 20,7 16,7 11 6 N 1015,6 29 -
09.08.2020 19:00:00 20,4 17,2 13 7 NNO 1015,8 10 -
09.08.2020 18:00:00 20,7 17,4 13 7 NNO 1016,0 10 -
09.08.2020 17:00:00 21,3 17,4 11 6 NNO 1016,5 10 -
09.08.2020 16:00:00 22,3 16,8 13 7 NNO 1016,5 10 -
09.08.2020 15:00:00 22,0 16,5 13 7 N 1016,8 10 -
09.08.2020 14:00:00 21,8 16,9 2 1 - 1016,8 10 -
09.08.2020 13:00:00 21,0 16,7 5 3 N 1017,0 10 -
09.08.2020 12:00:00 20,8 16,2 4 2 - 1017,2 10 -
09.08.2020 11:00:00 19,8 16,4 4 2 - 1017,4 10 -
09.08.2020 10:00:00 18,5 16,1 0 0 N 1017,4 30 -
09.08.2020 09:00:00 16,5 15,4 4 2 Z 1017,3 10 -
09.08.2020 08:00:00 16,2 15,6 0 0 N 1017,3 10 -
09.08.2020 07:00:00 16,4 15,6 4 2 Z 1017,3 11 -
09.08.2020 06:00:00 17,1 15,8 0 0 N 1017,3 10 -
09.08.2020 05:00:00 17,7 16,0 2 1 - 1017,3 10 -
09.08.2020 04:00:00 17,8 16,1 4 2 N 1017,6 25 -
09.08.2020 03:00:00 17,9 16,1 2 1 - 1017,8 10 -
09.08.2020 02:00:00 18,2 16,0 4 2 ZW 1018,1 26 -
09.08.2020 01:00:00 18,4 16,0 0 0 N 1018,3 10 -
09.08.2020 00:00:00 18,6 16,2 4 2 WNW 1018,4 10 -
08.08.2020 23:00:00 19,9 16,5 5 3 NW 1018,4 24 -
08.08.2020 22:00:00 20,8 17,0 8 4 WNW 1017,8 25 -
08.08.2020 21:00:00 22,3 17,3 11 6 NNW 1017,5 30 -
08.08.2020 20:00:00 23,5 17,7 11 6 NW 1017,3 22 -
08.08.2020 19:00:00 24,4 17,9 11 6 N 1017,4 30 -
08.08.2020 18:00:00 24,2 17,7 15 8 N 1017,9 30 -
08.08.2020 17:00:00 24,2 17,9 15 8 N 1018,3 30 -
08.08.2020 16:00:00 24,3 17,9 15 8 N 1018,9 30 -
08.08.2020 15:00:00 23,5 17,8 16 9 N 1019,4 26 -
08.08.2020 14:00:00 22,9 17,5 21 11 N 1019,5 27 -
08.08.2020 13:00:00 22,7 17,5 13 7 N 1019,7 10 -
08.08.2020 12:00:00 22,7 17,0 8 4 N 1020,1 10 -
08.08.2020 11:00:00 20,8 16,8 4 2 - 1020,3 10 -
08.08.2020 10:00:00 19,1 16,6 0 0 N 1020,6 30 -
08.08.2020 09:00:00 16,7 15,7 4 2 - 1020,6 7 -
08.08.2020 08:00:00 15,4 14,8 5 3 Z 1020,5 1,4 -
08.08.2020 07:00:00 16,5 15,7 2 1 - 1020,2 10 -
08.08.2020 06:00:00 16,7 15,9 5 3 NNW 1020,3 30 -
08.08.2020 05:00:00 17,0 16,2 4 2 - 1020,5 10 -
08.08.2020 04:00:00 17,6 16,5 4 2 - 1020,8 10 -
08.08.2020 03:00:00 18,1 16,9 5 3 N 1020,9 10 -
08.08.2020 02:00:00 18,3 17,1 5 3 N 1021,3 10 -
08.08.2020 01:00:00 18,6 17,2 5 3 N 1021,5 30 -
08.08.2020 00:00:00 18,8 17,6 8 4 N 1021,6 10 -
07.08.2020 23:00:00 19,4 17,4 9 5 N 1021,2 10 -
07.08.2020 22:00:00 19,9 17,7 11 6 N 1020,5 10 -
07.08.2020 21:00:00 20,6 17,6 15 8 N 1020,0 30 -
07.08.2020 20:00:00 21,6 18,0 15 8 N 1019,7 10 -
07.08.2020 19:00:00 22,5 18,0 16 9 N 1019,6 10 -
07.08.2020 18:00:00 22,4 17,3 16 9 N 1019,4 10 -
07.08.2020 17:00:00 23,7 17,5 15 8 N 1019,0 10 -
07.08.2020 16:00:00 24,1 17,3 15 8 NNO 1018,9 10 -
07.08.2020 15:00:00 24,2 17,3 11 6 N 1018,9 10 -
07.08.2020 14:00:00 23,5 16,6 13 7 N 1018,9 30 -
07.08.2020 13:00:00 21,8 16,7 11 6 NNO 1019,0 10 -
07.08.2020 12:00:00 21,8 17,6 13 7 N 1018,8 10 -
07.08.2020 11:00:00 21,7 18,3 11 6 NNO 1018,4 10 -
07.08.2020 10:00:00 20,8 18,6 9 5 NNO 1018,1 10 -
07.08.2020 09:00:00 19,7 18,4 5 3 N 1017,6 10 -
07.08.2020 08:00:00 19,7 18,5 8 4 N 1017,0 20 -
07.08.2020 07:00:00 19,7 18,7 8 4 N 1016,5 10 -
07.08.2020 06:00:00 19,7 18,7 5 3 N 1016,1 10 -
07.08.2020 05:00:00 19,9 19,1 5 3 N 1015,8 10 -
07.08.2020 04:00:00 19,9 19,1 5 3 N 1015,7 9 -
07.08.2020 03:00:00 20,1 19,3 5 3 N 1016,0 10 -
07.08.2020 02:00:00 20,1 19,4 5 3 N 1016,0 10 -
07.08.2020 01:00:00 20,3 19,3 8 4 N 1016,0 14 -
07.08.2020 00:00:00 20,5 19,3 8 4 N 1016,0 10 -
06.08.2020 23:00:00 20,9 19,7 9 5 N 1015,7 10 -
06.08.2020 22:00:00 21,4 19,9 8 4 N 1015,1 10 -
06.08.2020 21:00:00 21,6 19,5 9 5 N 1014,7 10 -
06.08.2020 20:00:00 22,0 18,8 11 6 NNW 1014,1 30 -
06.08.2020 19:00:00 22,1 19,3 9 5 NW 1013,5 20 -
06.08.2020 18:00:00 22,5 18,9 15 8 NNW 1013,3 14 -
06.08.2020 17:00:00 24,0 18,8 18 10 NNW 1012,8 10 -
06.08.2020 16:00:00 23,5 17,2 13 7 NNW 1013,0 10 -
06.08.2020 15:00:00 24,9 18,0 15 8 N 1012,6 10 -
06.08.2020 14:00:00 24,3 17,8 13 7 NNO 1012,4 25 -
06.08.2020 13:00:00 22,9 16,7 13 7 NNO 1012,7 10 -
06.08.2020 12:00:00 23,0 17,0 8 4 NO 1012,9 10 -
06.08.2020 11:00:00 21,8 16,8 4 2 O 1013,0 22 -
06.08.2020 10:00:00 19,1 16,1 2 1 - 1013,5 8 -
06.08.2020 09:00:00 18,0 16,1 4 2 - 1013,6 7 -
06.08.2020 08:00:00 17,8 16,3 4 2 - 1013,2 7 -
06.08.2020 07:00:00 18,0 17,0 2 1 - 1013,4 7 -
06.08.2020 06:00:00 18,2 16,7 4 2 - 1013,5 10 -
06.08.2020 05:00:00 18,9 17,2 2 1 NNO 1013,6 19 -
06.08.2020 04:00:00 18,9 17,2 4 2 N 1013,9 21 -
06.08.2020 03:00:00 19,0 17,5 2 1 - 1014,3 10 -
06.08.2020 02:00:00 18,9 17,7 4 2 NNO 1014,7 24 -
06.08.2020 01:00:00 19,0 17,8 4 2 - 1014,8 10 -
06.08.2020 00:00:00 18,8 17,6 5 3 N 1015,1 10 -
05.08.2020 23:00:00 19,2 17,5 9 5 NNW 1015,2 30 -
05.08.2020 22:00:00 19,5 17,5 11 6 N 1014,8 10 -
05.08.2020 21:00:00 20,6 17,6 15 8 N 1014,4 30 -
05.08.2020 20:00:00 21,6 18,1 13 7 N 1014,3 30 -
05.08.2020 19:00:00 22,5 17,7 13 7 NNO 1014,5 10 -
05.08.2020 18:00:00 22,8 17,7 15 8 NNO 1014,4 10 -
05.08.2020 17:00:00 22,6 17,4 15 8 N 1014,5 30 -
05.08.2020 16:00:00 22,7 17,0 16 9 N 1014,6 10 -
05.08.2020 15:00:00 23,3 16,9 15 8 NNO 1014,7 30 -
05.08.2020 14:00:00 22,6 16,6 15 8 NNO 1014,7 30 -
05.08.2020 13:00:00 22,5 15,6 13 7 NO 1014,8 10 -
05.08.2020 12:00:00 21,0 16,6 9 5 NNO 1015,0 10 -
05.08.2020 11:00:00 19,3 16,5 4 2 - 1015,2 10 -
05.08.2020 10:00:00 16,3 16,0 8 4 Z 1015,1 2,5 -
05.08.2020 09:00:00 15,0 14,7 8 4 Z 1015,2 0,4 -
05.08.2020 08:00:00 14,2 13,9 8 4 Z 1015,2 0,2 0,0

tt = temperatuur
td = dauwpunt
ff = windsnelheid
dd = windrichting
ppp = luchtdruk
vv = zicht
rr = neerslag

Weerstations in de omgeving